Regional Weather Roundup
Issued by NWS

Home | Current Version | Previous Version | Text Only | Print | Product List | Glossary Off
Versions: 1 2 3 4 5 6 7 8 9 10 11 12 13 14 15 16 17 18 19 20 21 22 23 24 25 26 27 28 29 30 31 32 33 34 35 36 37 38 39 40 41 42 43 44 45 46 47 48 49 50

000
ASUS45 KSLC 242010
RWRUT

UTAH REGIONAL WEATHER ROUNDUP
NATIONAL WEATHER SERVICE SALT LAKE CITY UT
200 PM MDT WED AUG 24 2016

UTZ001>011-023>025-242100-

NORTHERN UTAH

CITY           SKY/WX    TMP DP  RH WIND       PRES   REMARKS
BRIGHAM CITY     N/A     77  11   8 SW3       30.15F
HILL AFB       SUNNY     75  24  15 SW12      30.17F
LOGAN          SUNNY     75  25  15 VRB6      30.14F
OGDEN          SUNNY     76  22  13 VRB5      30.15F
PROVO AIRPORT  MOSUNNY   79  30  17 NW10      30.14F
SALT LAKE CITY MOSUNNY   81  20  10 NW21G29   30.13F
VERNAL         SUNNY     80  38  22 MISG      30.09F
WENDOVER       SUNNY     79  25  13 SE12      30.14F
HEBER CITY     SUNNY     79  28  15 SW14G21   30.15F
WEST JORDAN    SUNNY     77  29  16 N13G22    30.16F

$$

UTZ012>022-026-027-242100-

SOUTHERN/CENTRAL UTAH

CITY           SKY/WX    TMP DP  RH WIND       PRES   REMARKS
BLANDING       MOSUNNY   74  50  42 S7        30.29F
BRYCE CANYON   PTSUNNY   68  35  29 W30G39    30.33R
CEDAR CITY     SUNNY     83  40  21 S12G18    30.17F
DELTA          SUNNY     81  23  12 CALM      30.15F
MILFORD        MOSUNNY   84  43  23 NE7       30.13F
MOAB/CYNLANDS  SUNNY     80  49  33 VRB5      30.09F
PRICE          SUNNY     78  42  27 VRB5      30.17F
ST GEORGE      CLEAR     90  48  24 W13       30.05F

$$

REGIONAL REPORTS     COLORADO/ARIZONA

CITY           SKY/WX    TMP DP  RH WIND       PRES   REMARKS
CRAIG, CO      CLOUDY    80  29  15 W14G21    30.15F
GRAND JUNCTION SUNNY     81  47  30 W6        30.11F
RIFLE          CLOUDY    79  44  28 N16G24    30.15F
MONTROSE       CLOUDY    74  45  35 NW8       30.19F
CORTEZ         SUNNY     72  53  51 VRB5      30.23F
PAGE, AZ       SUNNY     84  45  25 CALM      30.10F
GRAND CANYON   MOSUNNY   78  45  30 W9G20     30.31F
KINGMAN        SUNNY     90  46  21 SW9       30.10F
FLAGSTAFF      MOSUNNY   74  40  29 VRB6      30.31F

$$

REGIONAL REPORTS    NEVADA/IDAHO/WYOMING

CITY           SKY/WX    TMP DP  RH WIND       PRES   REMARKS
LAS VEGAS, NV  MOSUNNY   95  43  16 CALM      29.95F HX  91
ELY            SUNNY     80  17   9 NW7G24    30.23F
ELKO           SUNNY     80   9   6 VRB7G23   30.18F
POCATELLO, ID  SUNNY     71  28  20 SW14      30.17F
EVANSTON, WY   SUNNY     72  10   9 W29G39    30.24F
ROCK SPRINGS   SUNNY     73  15  11 VRB7G26   30.20F

$$



USA.gov is the U.S. government's official web portal to all federal, state and local government web resources and services.